Wind_Speed
12 12 11 11 11 11 11 10 10 10 10 10 10 10 10 10 10 11 12 12 12 13 13 14 15 16 16 17 17 16 16 14 11 8 8 9 9 8 9 8 6 9 12 9 7 8 6 4 4 5 5 3 2 0 1 1 2 2 3 2 3 4 4 6 8 7 4 4 6 4 0 2 7 6 2 1 1 5 5 4 5 7 8 10 9 6 4 4
12 13 13 12 12 12 11 11 11 10 10 10 10 10 10 10 10 10 11 11 12 12 12 13 14 15 16 16 16 16 18 16 12 9 7 5 4 7 9 10 9 9 12 11 10 10 6 3 5 6 4 2 2 2 1 1 2 2 4 2 4 6 6 6 8 6 4 4 5 6 3 3 7 4 1 3 7 6 7 7 4 8 12 13 13 9 7 10
13 14 13 13 13 12 12 12 12 12 11 11 10 10 10 10 9 10 11 11 11 11 12 12 13 14 14 15 14 16 17 13 7 5 2 5 3 4 8 10 9 9 12 10 8 10 5 5 10 7 4 1 1 2 1 0 2 2 3 2 6 7 6 5 7 8 8 4 5 8 4 2 6 3 0 3 8 8 10 10 4 9 13 13 10 9 10 13
14 14 14 14 14 13 13 13 13 12 12 12 11 11 10 10 9 9 10 10 11 11 12 12 12 13 13 13 13 14 14 8 3 1 2 4 7 5 6 10 9 9 12 8 4 7 3 4 9 6 4 0 3 3 0 3 2 1 4 5 7 4 4 7 9 9 8 3 4 6 5 6 6 2 2 2 5 10 12 10 9 12 13 12 10 8 11 12
15 15 15 14 13 13 13 13 13 12 12 11 11 11 11 10 9 10 10 10 10 11 12 12 12 12 12 12 11 11 10 6 2 2 1 5 8 7 4 9 11 10 12 9 3 5 4 6 6 5 3 1 2 2 2 4 3 1 5 7 6 4 4 7 8 8 6 3 4 4 6 7 3 1 4 5 4 10 12 7 10 13 11 11 8 7 8 9
15 15 15 13 12 13 13 13 13 12 12 11 11 11 11 11 10 10 10 10 10 10 11 11 12 12 11 11 8 5 4 1 5 3 6 9 9 7 3 9 12 11 13 10 5 7 5 5 4 2 2 1 2 3 5 3 3 3 5 5 6 6 7 6 4 5 5 4 4 4 5 3 3 7 4 9 11 16 17 10 9 10 10 9 4 6 8 10
14 14 15 13 12 13 14 13 13 12 11 11 11 11 11 11 11 11 11 11 11 10 11 10 11 11 10 7 4 2 4 5 12 10 12 11 9 6 3 8 11 12 13 10 7 7 5 5 3 4 3 1 3 5 5 1 1 4 5 4 7 7 9 8 3 4 4 5 8 3 6 7 7 7 1 7 13 18 21 13 8 9 8 7 5 7 10 12
13 14 15 14 13 14 14 14 14 12 11 11 11 11 11 12 12 13 12 13 12 11 11 11 11 9 7 3 0 3 1 9 16 14 13 10 7 5 5 8 11 13 14 12 10 8 6 6 6 4 2 3 4 4 3 1 1 5 7 5 4 4 8 9 5 5 6 7 6 3 9 15 11 3 5 12 16 19 19 14 10 9 8 8 10 11 10 11
13 14 14 14 13 14 15 15 14 12 12 12 12 12 12 12 12 13 13 14 13 12 12 11 11 8 6 1 3 2 4 8 10 8 8 7 7 5 6 8 11 15 13 12 11 10 7 6 6 5 4 4 4 4 3 3 4 7 8 6 4 7 8 7 6 7 7 6 4 4 13 17 7 2 10 17 20 19 14 13 11 7 9 10 11 12 11 11
12 13 13 13 13 14 14 15 14 13 13 13 13 14 13 13 13 14 14 15 14 13 12 11 10 8 5 1 2 4 7 6 6 7 8 9 8 7 9 10 12 16 13 9 11 12 7 7 7 5 5 3 4 4 3 4 4 4 4 7 7 9 9 4 6 8 5 5 7 8 15 15 3 2 9 16 14 10 8 11 10 5 9 11 9 11 10 11
12 12 13 13 13 13 14 14 15 14 14 14 14 14 14 15 15 16 15 15 14 12 11 11 10 7 4 3 3 6 7 6 8 10 10 11 10 9 10 11 12 16 13 7 11 15 10 8 7 5 2 2 3 2 3 5 1 0 1 8 9 8 10 5 6 8 4 4 8 12 12 12 4 2 13 19 8 2 6 12 11 7 10 11 11 10 8 9
12 11 12 12 12 12 13 14 15 14 14 14 15 15 16 16 16 17 16 16 15 12 11 10 8 6 2 2 6 12 12 10 10 11 12 12 10 10 10 11 12 14 14 9 8 14 13 8 7 5 4 3 1 1 4 3 1 2 3 6 11 8 11 8 5 5 6 4 6 9 5 9 6 9 19 19 6 1 6 12 13 11 11 11 11 9 7 10
11 10 11 12 12 11 12 14 15 14 14 15 16 17 17 17 17 17 17 17 15 12 10 9 7 5 2 2 7 14 17 16 15 14 14 14 11 10 9 10 11 11 13 10 5 6 11 11 8 6 3 3 3 2 1 2 2 4 2 1 8 8 9 6 2 1 3 5 7 7 3 7 10 16 21 13 5 5 7 10 13 11 10 10 10 8 9 10
11 10 11 12 11 11 13 15 16 15 15 17 18 18 18 18 18 18 17 17 15 12 9 6 4 4 3 6 8 8 14 16 17 18 17 16 12 7 6 7 9 10 10 9 5 2 8 11 7 2 1 3 3 3 3 5 3 4 2 1 3 3 7 4 3 2 2 3 7 6 5 9 11 16 20 10 3 6 8 11 12 11 10 9 10 9 10 11
11 11 11 11 11 12 14 16 18 17 16 18 19 19 20 18 18 18 17 15 13 9 6 3 6 5 2 7 9 7 10 12 14 18 17 17 13 6 5 7 7 8 8 6 5 5 8 9 5 2 2 1 1 2 4 4 3 2 2 4 2 3 6 9 4 5 6 4 3 6 5 9 11 14 17 10 3 5 8 11 10 12 12 9 10 9 11 13
11 10 10 11 11 12 14 17 19 19 18 20 20 20 20 17 15 14 12 10 7 4 4 5 8 6 1 5 5 6 9 10 11 13 13 15 13 7 7 8 6 6 7 5 6 7 7 6 2 2 1 2 1 1 3 4 4 3 2 5 5 5 5 8 8 5 7 2 1 7 6 7 9 11 12 9 7 6 7 10 11 13 14 11 10 9 11 14
10 10 10 11 11 13 14 17 20 20 21 21 20 20 16 12 10 9 5 0 5 6 6 6 8 4 2 5 5 7 7 8 9 7 8 10 10 9 9 7 5 7 7 4 6 5 3 2 0 1 1 1 2 3 2 3 5 4 2 5 5 6 6 6 7 6 1 4 5 7 8 12 13 10 12 11 11 9 10 13 13 14 15 13 11 10 12 14
11 10 11 11 12 13 14 16 20 21 22 21 21 19 11 6 7 6 4 10 11 8 6 4 5 2 4 5 5 5 2 2 4 3 4 6 8 10 8 6 6 8 7 4 2 3 1 1 2 1 1 1 2 4 3 7 8 7 6 5 4 4 6 7 8 5 5 6 6 5 10 16 16 13 14 15 12 12 17 17 14 15 16 15 13 13 15 15
11 11 12 12 13 14 15 17 19 22 23 22 21 15 7 3 4 3 5 8 6 3 1 3 4 3 4 6 5 3 2 1 2 2 5 8 10 9 7 7 7 7 4 1 2 3 1 3 4 2 3 6 7 8 11 14 11 8 6 5 7 7 7 8 10 7 6 11 9 11 17 17 16 15 13 15 12 11 16 17 15 14 13 13 14 15 15 16
11 11 12 13 13 14 15 16 19 21 22 22 21 12 4 4 3 1 1 1 5 4 2 5 8 4 5 4 1 1 1 2 1 3 7 10 12 10 5 4 5 4 3 4 3 2 3 3 3 5 9 12 11 11 13 11 5 4 4 5 8 9 9 9 11 10 4 6 8 12 20 19 15 16 13 14 13 11 15 17 18 16 13 13 15 18 19 18
12 12 12 13 13 14 15 16 18 20 19 19 18 8 1 2 2 3 5 5 10 11 8 9 9 8 11 5 1 2 1 1 1 4 7 10 13 9 1 2 4 1 3 4 3 1 3 5 7 11 13 10 6 4 6 6 6 6 5 7 8 7 12 12 12 13 4 3 6 9 18 20 14 15 14 13 14 17 17 15 17 20 17 14 15 21 21 16
14 12 12 13 14 15 15 15 16 17 17 16 14 6 2 1 1 2 2 4 10 10 9 11 7 9 15 9 2 2 2 2 3 1 8 8 6 5 2 3 5 4 2 3 2 1 2 5 12 15 10 2 3 2 2 5 7 7 4 6 7 5 10 12 10 11 4 2 6 8 16 17 12 15 17 17 17 17 15 11 14 18 19 18 17 16 15 15
16 14 13 13 14 16 15 15 15 14 14 13 10 5 1 2 1 1 1 3 8 6 6 8 6 7 10 8 5 6 3 6 5 4 11 11 2 3 5 5 5 3 3 5 6 5 3 7 13 12 7 3 4 3 3 5 6 6 5 5 8 6 7 8 5 5 4 3 6 10 15 14 11 15 16 17 15 12 14 14 14 16 20 22 16 10 11 16
16 14 13 13 15 16 15 15 13 10 12 9 7 6 4 2 2 1 1 2 5 6 5 6 5 5 6 4 6 9 5 5 4 4 9 12 4 2 4 5 5 3 6 9 9 7 7 8 5 4 5 8 7 5 4 7 7 6 6 6 10 12 10 10 7 6 6 5 6 8 13 10 6 9 9 7 6 7 11 14 16 17 18 16 13 12 16 15
14 13 12 12 14 15 15 14 9 7 11 7 5 9 7 3 2 1 2 2 4 6 5 3 2 3 4 2 5 7 3 2 3 3 4 8 6 3 2 2 4 5 7 7 6 7 9 6 4 4 3 6 5 6 7 9 7 5 6 12 16 15 12 12 9 8 6 4 4 5 7 8 1 3 6 5 4 7 9 12 17 15 10 9 11 15 16 10
13 13 13 12 13 14 13 8 4 7 9 4 4 10 8 3 2 1 2 2 4 4 1 1 1 2 3 2 1 4 3 1 2 1 2 4 3 3 2 1 1 4 6 5 3 3 5 3 3 4 4 6 5 7 8 8 5 7 6 11 14 12 10 10 8 4 2 4 3 4 1 8 4 3 7 7 6 11 12 13 14 10 8 9 10 12 12 11
15 14 14 13 13 12 8 3 3 6 5 3 6 10 8 4 3 3 1 3 5 2 3 1 1 2 2 0 1 3 2 3 2 3 1 1 1 1 2 3 1 1 3 3 1 3 4 0 4 4 5 6 5 6 6 9 5 7 5 6 8 8 7 5 3 3 4 3 3 2 4 7 10 5 7 8 8 12 15 14 11 9 9 11 11 11 11 11
18 17 16 15 14 12 9 5 5 4 2 3 7 8 7 5 3 1 2 3 4 2 3 1 1 2 0 2 3 4 1 2 2 2 3 1 1 2 1 6 6 4 3 5 3 4 4 4 5 6 5 4 6 5 6 11 6 6 3 5 5 4 4 4 4 4 2 4 4 3 5 3 11 6 3 2 6 10 14 13 11 10 8 9 11 11 10 9
19 18 18 16 13 12 11 9 7 5 5 4 6 7 7 5 2 3 2 3 2 2 1 0 2 1 2 2 3 3 1 2 2 3 4 1 1 3 1 6 6 4 4 4 6 6 1 4 7 8 5 6 7 4 8 12 7 4 4 5 4 3 2 3 3 2 2 4 5 4 4 2 11 7 3 2 3 7 10 9 9 9 8 9 9 10 10 9
18 18 18 15 11 10 8 9 11 10 7 4 4 6 6 3 1 1 3 4 1 1 0 1 0 1 3 3 3 3 1 2 1 2 3 1 2 5 1 3 5 2 3 2 5 6 2 1 3 5 5 5 5 3 5 9 5 1 5 4 5 4 4 3 1 3 3 6 5 7 9 5 7 5 3 3 4 5 4 7 9 8 9 10 8 9 11 9
15 16 17 14 11 10 7 5 10 10 7 5 3 4 3 3 2 3 6 2 1 2 0 1 2 2 4 2 2 2 0 2 2 2 1 1 2 4 1 1 3 2 3 4 5 4 1 2 2 4 4 4 4 1 1 1 3 4 4 3 4 4 4 4 4 3 2 6 5 7 9 7 6 6 1 3 6 5 6 7 10 10 11 12 10 9 10 8
12 13 15 15 14 13 9 4 4 4 6 5 1 3 2 1 2 6 5 3 2 2 1 1 1 2 2 2 2 2 1 2 1 2 3 2 2 2 3 4 3 1 3 3 3 4 2 5 4 3 2 5 5 1 3 3 5 4 3 3 2 4 3 3 3 1 3 7 5 6 6 4 10 11 5 9 15 14 9 7 9 11 10 11 10 9 8 8
10 11 12 15 15 16 15 11 5 3 7 7 2 4 4 3 6 5 3 1 2 1 2 2 2 2 2 1 2 2 1 2 2 2 1 3 1 3 5 4 4 2 4 2 1 3 4 5 1 1 3 4 8 5 3 2 4 5 5 4 3 1 2 3 3 2 4 6 3 4 5 3 9 9 7 12 15 13 8 6 8 9 9 9 9 8 8 9
9 8 10 13 15 16 17 16 11 8 9 8 3 3 3 7 6 2 3 5 3 1 2 3 3 2 1 2 3 2 1 3 3 3 1 2 1 3 4 5 4 2 1 1 1 2 3 7 4 5 3 5 10 8 6 4 4 5 5 5 4 4 4 4 4 4 6 5 3 1 4 4 6 5 6 10 10 8 7 8 7 6 7 7 7 8 8 9
10 8 8 10 13 15 16 17 16 14 13 7 2 2 5 9 5 1 3 4 2 2 1 2 4 2 2 2 3 2 4 4 2 4 3 3 3 4 3 4 6 4 3 1 2 3 4 8 6 2 0 8 9 5 5 7 2 2 3 4 3 5 4 3 5 6 6 5 4 2 3 5 5 7 11 11 11 10 10 10 8 7 5 4 5 7 7 8
9 7 6 9 13 15 16 18 19 18 14 5 2 6 8 7 3 3 4 2 1 2 1 2 3 2 4 2 2 3 2 3 1 2 2 3 4 5 4 4 7 9 7 4 3 2 3 6 4 1 1 6 7 3 4 5 2 1 3 3 4 4 5 3 6 4 3 6 6 5 7 7 5 10 12 10 10 9 8 8 6 6 3 5 6 7 7 9
8 6 5 9 12 15 16 18 20 20 11 3 6 8 6 4 4 4 3 1 1 3 3 2 2 3 3 2 2 2 1 2 2 2 2 2 3 4 5 4 5 11 11 6 4 4 3 5 4 3 3 5 4 1 3 4 4 5 3 4 2 2 3 2 3 2 3 7 5 6 12 11 6 8 8 9 12 10 6 6 3 4 6 4 4 6 7 8
5 5 6 10 15 15 13 17 20 16 5 2 9 10 4 2 3 2 3 3 1 2 3 3 4 2 2 3 3 2 3 2 2 2 2 2 3 4 5 4 4 9 11 6 3 2 0 3 4 3 4 3 2 1 4 5 1 3 3 1 1 1 2 2 1 1 5 8 5 6 11 10 7 9 10 13 19 15 6 5 7 8 7 4 4 7 8 9
2 2 4 8 16 16 14 18 18 9 2 4 9 9 4 2 2 2 3 2 2 2 2 4 4 2 2 3 3 2 3 3 2 1 1 3 4 2 3 3 2 5 6 5 3 1 2 2 4 2 3 0 2 1 5 5 2 3 1 1 1 2 4 4 2 2 4 8 8 8 9 7 6 7 10 15 20 17 7 4 8 10 7 7 8 9 11 12
1 1 3 4 11 17 17 17 12 4 3 5 7 6 1 1 3 2 3 2 1 1 2 4 4 4 4 4 4 3 2 3 3 2 3 3 4 4 3 3 1 0 1 2 3 1 1 4 6 4 1 1 1 5 7 7 4 2 3 2 2 3 2 3 3 3 5 7 8 9 9 6 4 5 10 16 17 13 6 4 6 8 9 11 11 11 11 11
1 1 3 4 6 16 17 11 5 4 4 4 6 7 3 2 3 3 3 2 3 3 1 4 5 5 4 3 3 2 1 2 3 4 4 4 4 5 4 2 3 2 3 2 2 2 2 4 5 4 3 5 8 8 7 8 6 5 5 5 6 5 3 6 7 6 6 6 6 8 9 6 3 4 8 12 12 9 10 8 6 10 14 14 13 12 11 11
2 3 1 3 9 20 14 4 3 3 4 4 4 5 3 2 2 3 3 2 3 2 1 2 4 4 3 3 3 3 2 3 4 4 5 5 7 7 4 1 3 4 2 1 4 4 2 2 4 6 7 9 11 8 6 6 5 2 3 4 5 4 4 7 9 7 6 5 4 7 9 6 4 7 8 9 10 11 15 15 12 12 13 14 14 14 13 13
3 3 2 1 14 19 7 3 5 3 4 4 3 3 2 1 3 3 2 2 2 3 2 2 3 4 4 4 4 4 4 4 6 8 7 5 8 9 7 4 2 1 1 3 4 3 1 1 3 7 7 6 8 8 5 3 5 1 2 3 4 3 3 7 6 4 4 4 4 7 8 4 2 6 6 7 11 14 16 14 12 11 11 13 14 15 14 14
1 2 2 2 13 13 4 4 6 5 5 4 5 7 4 2 4 6 5 3 2 2 3 3 3 5 5 5 4 6 6 5 6 8 6 5 6 5 3 4 4 2 1 3 3 3 2 1 3 5 5 4 4 6 5 1 2 2 3 4 5 5 6 7 4 3 2 5 8 9 7 4 3 4 7 13 14 14 14 13 13 12 12 12 13 13 13 14
1 1 1 2 9 8 4 4 4 4 6 6 8 9 8 5 5 6 7 5 4 4 3 3 2 2 3 3 3 5 6 5 5 4 2 3 4 3 6 7 4 2 1 1 1 2 2 2 3 4 6 6 6 5 3 2 1 2 2 3 4 4 6 5 4 4 5 6 9 9 7 6 6 5 11 15 14 12 12 12 12 12 11 12 11 12 12 13
0 1 1 1 3 4 3 2 2 3 4 6 6 7 10 10 6 3 5 6 6 5 4 4 1 1 2 3 5 6 6 6 5 4 3 4 3 2 3 5 5 3 2 3 3 1 1 2 5 8 10 9 9 7 5 6 7 7 7 7 7 6 6 4 3 6 8 7 8 10 11 12 10 6 10 11 11 12 11 11 12 11 11 11 11 11 12 11
0 1 1 1 2 3 3 4 4 4 3 3 3 4 8 11 7 4 5 5 4 3 3 4 5 5 5 6 6 7 6 7 7 7 8 6 4 3 5 4 5 5 3 3 2 1 1 3 6 10 12 10 11 12 11 10 10 10 11 11 11 10 8 7 8 9 9 8 8 9 12 15 10 4 8 8 9 9 9 10 10 9 9 9 9 11 13 14
0 1 1 0 1 3 3 3 3 5 6 6 3 4 8 9 8 5 3 2 2 2 2 3 5 10 10 8 7 6 7 8 8 9 8 5 2 3 6 3 2 5 5 2 2 1 2 5 6 10 13 11 11 12 9 7 8 7 9 11 11 12 12 13 15 13 10 10 10 12 16 17 7 5 6 7 8 8 7 6 6 6 7 8 9 11 12 13
1 0 2 2 0 2 2 2 2 2 6 8 6 7 10 12 12 9 3 1 3 2 5 6 8 9 10 9 8 6 8 9 8 8 5 1 1 1 3 3 1 4 6 4 3 1 2 4 4 6 10 8 8 9 7 7 8 8 10 10 9 12 15 16 16 14 13 15 15 16 18 12 2 4 3 3 4 6 5 3 3 4 6 8 10 11 10 11
1 0 1 2 1 1 2 2 2 2 3 5 6 8 10 12 14 11 4 4 6 4 5 9 12 9 7 8 10 9 9 8 7 7 3 2 2 2 1 2 1 3 5 2 2 3 2 3 3 4 6 8 9 9 9 9 9 10 11 10 11 15 16 16 15 13 14 16 14 14 13 5 4 3 2 1 1 3 5 5 4 4 6 8 9 11 11 10
1 2 1 1 2 2 1 0 1 1 3 5 6 6 8 8 8 6 2 1 2 2 0 2 6 4 2 5 8 7 4 2 1 1 1 1 3 1 0 1 0 3 3 1 1 3 2 2 5 5 6 8 9 11 10 9 9 12 13 14 17 17 15 15 10 5 7 9 9 10 8 1 2 0 1 2 1 2 4 5 4 3 4 7 8 10 11 11
1 3 1 0 2 2 2 1 0 2 3 3 3 3 3 2 3 4 3 1 5 4 3 5 5 3 2 4 4 1 2 3 3 1 0 2 5 4 3 4 3 3 2 2 2 2 2 3 3 4 5 7 11 11 7 6 9 12 11 11 15 15 15 15 7 2 2 4 3 5 2 2 1 2 2 3 4 4 5 5 4 4 3 5 7 9 10 11
Wind_Direction
353 354 354 357 356 356 354 351 352 351 353 351 350 349 346 346 343 342 339 338 339 337 339 339 341 342 344 349 348 344 336 327 317 295 263 281 286 263 260 258 239 208 205 209 192 169 140 125 140 126 123 95 17 31 58 15 99 78 94 144 223 198 205 191 190 200 192 258 272 291 170 220 293 298 283 348 284 270 271 257 267 279 257 242 249 266 274 205
350 350 350 351 349 352 349 346 346 344 346 346 346 343 340 341 339 338 334 334 335 332 335 335 337 338 341 348 349 348 337 327 320 290 279 315 298 251 246 240 235 215 203 203 203 181 149 172 162 111 82 78 348 12 22 312 128 124 123 176 230 203 214 198 188 199 204 239 265 283 275 233 263 278 358 286 283 306 293 273 260 273 269 262 254 244 231 193
346 347 347 347 346 347 346 344 343 340 340 341 340 338 336 336 333 332 329 329 329 328 329 329 331 333 338 344 350 351 337 330 324 287 320 34 14 262 238 227 228 220 206 208 216 201 186 191 162 116 54 64 326 16 31 327 183 179 134 213 243 217 232 232 208 209 220 246 293 288 289 245 250 255 74 259 289 301 275 267 248 256 262 262 249 215 204 192
343 344 344 345 345 343 343 343 339 337 336 335 335 334 332 331 329 325 323 322 323 323 323 324 325 326 332 339 348 350 341 342 319 233 93 26 2 331 240 220 218 217 209 211 220 210 205 148 144 100 69 187 324 12 197 227 203 182 155 213 236 199 239 238 217 223 232 239 253 275 326 296 262 207 195 225 307 293 267 249 228 241 249 254 251 207 192 190
341 341 343 344 344 343 342 339 335 334 332 332 330 328 327 326 324 318 314 312 314 315 316 317 316 318 323 330 342 349 0 9 288 211 289 324 336 328 255 211 210 211 204 205 189 166 142 114 102 57 79 171 331 38 249 226 143 177 212 232 232 174 243 238 204 223 218 181 230 271 303 285 278 222 204 180 227 265 266 237 210 229 238 247 247 199 188 196
339 341 344 344 346 345 341 337 333 333 331 331 327 325 324 320 317 311 306 302 302 302 303 304 305 307 312 323 333 348 44 323 267 266 292 303 310 309 262 207 204 203 200 200 169 144 123 90 77 83 94 23 202 198 254 239 134 241 248 255 247 208 235 244 184 206 178 157 223 241 281 297 324 287 215 174 217 248 263 251 217 231 230 241 232 167 189 208
337 340 343 344 348 344 340 336 333 334 333 332 327 325 321 318 315 308 304 298 296 295 294 294 295 296 305 321 324 5 97 244 271 279 288 295 293 292 245 208 200 200 200 189 156 143 116 99 146 154 109 345 214 213 247 250 160 241 258 264 255 225 230 248 234 223 199 223 240 255 314 291 260 281 264 192 229 248 262 262 243 250 244 242 232 200 209 214
336 337 339 342 345 343 340 336 335 334 333 333 329 327 324 322 316 309 305 298 297 297 293 290 290 292 301 307 261 358 108 255 276 278 280 286 280 270 226 205 197 201 199 196 177 154 135 144 186 159 127 243 196 195 217 209 211 223 240 252 261 246 243 259 266 255 252 250 250 276 286 269 243 241 286 253 249 252 260 272 263 261 265 249 241 236 227 224
336 336 336 339 343 343 339 336 337 336 334 334 333 333 330 326 319 312 306 300 300 299 296 294 290 286 286 283 94 334 260 260 279 269 272 282 271 248 222 209 202 201 197 205 192 167 167 180 202 187 193 215 172 195 194 193 241 218 227 254 275 277 273 281 278 248 248 246 195 219 263 269 254 193 269 256 250 259 265 276 273 266 266 251 242 243 232 229
336 337 339 341 344 343 340 341 342 339 336 335 335 335 330 326 320 313 307 302 301 300 299 294 289 280 265 209 104 278 265 260 258 249 270 276 257 233 223 219 210 205 195 195 192 179 179 193 193 173 177 169 169 205 167 174 221 202 222 272 263 271 280 264 263 250 242 252 185 194 254 268 289 107 266 252 238 263 281 273 273 262 261 258 248 244 236 232
337 338 342 344 344 343 345 345 343 341 338 337 336 332 328 324 318 311 305 299 297 298 296 291 291 280 247 161 175 254 263 247 244 251 264 263 249 236 233 230 218 207 195 182 200 202 199 192 162 132 176 190 180 210 221 202 202 166 326 300 278 288 293 232 241 257 219 256 196 187 250 278 324 157 247 258 247 240 271 275 279 267 263 265 259 250 238 236
333 335 343 344 342 345 348 345 342 341 340 340 336 330 327 321 314 306 299 294 293 292 286 286 286 264 233 145 218 245 257 251 250 254 258 255 245 238 233 228 222 214 207 199 213 214 212 203 153 160 219 182 165 264 240 215 83 313 49 315 292 320 306 256 242 253 179 220 189 165 265 287 264 236 245 259 269 227 259 275 280 272 268 268 264 260 246 243
331 338 345 341 339 345 349 346 343 342 343 343 336 331 325 317 310 301 294 289 286 285 281 278 270 238 198 261 243 249 257 255 255 256 254 251 243 237 226 220 220 218 217 214 224 217 213 211 179 188 209 156 245 248 151 57 38 294 65 304 297 329 307 267 152 43 156 198 170 154 271 264 245 254 259 264 263 256 262 267 271 271 270 272 270 267 259 252
340 347 345 338 336 342 349 349 345 342 343 341 336 332 323 314 306 296 291 286 282 282 277 265 237 183 152 256 262 264 261 257 255 251 248 246 235 226 220 212 212 210 214 215 215 188 196 203 177 152 231 174 252 292 348 6 8 301 299 222 311 298 286 284 137 100 301 233 158 164 251 256 252 260 266 278 259 240 256 263 268 270 265 269 273 271 269 260
347 345 340 336 334 340 347 349 347 344 343 340 336 331 322 313 306 299 293 284 279 275 259 210 177 148 81 276 271 278 267 260 256 252 250 243 226 210 199 191 193 192 194 194 190 169 165 176 156 135 253 263 308 315 322 340 1 353 288 285 294 212 270 299 268 199 241 279 126 172 231 261 259 260 267 288 295 233 251 263 266 271 268 263 268 270 272 272
340 338 335 333 332 337 343 346 348 347 344 341 338 332 323 317 315 311 301 285 268 231 188 171 165 141 53 272 278 290 267 251 252 254 247 236 224 205 169 158 149 149 165 170 167 162 148 143 126 148 201 291 202 175 0 351 328 335 214 256 264 240 275 308 295 236 210 226 206 216 236 269 260 262 273 290 291 253 248 266 267 271 274 269 266 266 267 273
332 332 330 330 328 332 339 345 349 348 347 344 339 333 325 324 337 335 321 118 137 133 124 149 151 125 271 263 289 286 261 242 243 248 233 221 209 185 152 127 111 123 127 124 144 147 121 113 49 7 49 1 148 111 9 297 274 285 235 240 250 250 270 299 295 299 178 179 220 237 242 256 262 274 286 287 289 286 270 268 268 270 275 274 270 265 262 264
328 327 326 325 325 330 336 343 349 350 349 347 342 334 321 330 6 19 100 120 114 101 85 110 122 94 267 252 258 260 283 247 227 218 198 179 170 169 148 122 119 118 100 59 126 144 12 27 73 27 354 294 156 127 211 240 234 238 241 256 284 263 252 263 266 304 334 254 240 277 259 257 268 274 277 277 277 280 276 273 270 268 270 273 273 267 263 263
325 325 324 322 323 327 332 340 348 350 350 350 347 331 302 320 11 71 118 122 116 114 133 189 159 142 247 248 251 273 354 105 138 114 132 139 150 145 120 113 108 107 107 49 255 199 141 59 72 110 219 229 214 185 209 231 234 237 243 257 282 280 252 247 256 263 285 278 272 277 271 269 274 273 271 275 269 261 270 277 275 268 267 270 271 268 265 262
317 319 319 319 320 324 330 337 344 349 351 354 351 337 309 348 356 338 340 244 225 219 218 219 202 215 274 271 277 302 240 184 126 114 137 143 145 130 97 83 72 76 144 161 207 219 128 141 168 203 216 222 220 210 223 245 285 297 277 264 263 273 272 262 270 265 240 272 260 254 272 277 275 277 272 271 275 264 260 268 273 274 270 266 267 269 266 260
308 311 313 315 316 320 327 333 340 347 352 356 0 5 70 20 344 308 313 283 257 250 255 242 219 249 264 256 108 118 85 305 357 111 144 149 145 143 119 96 107 179 211 156 160 47 101 168 219 224 221 226 231 227 251 282 310 288 264 275 271 260 270 267 267 273 252 243 254 245 272 277 274 279 275 266 267 262 255 255 269 277 274 266 260 263 267 269
299 303 309 312 315 319 324 332 338 343 348 359 19 51 125 341 329 305 310 294 281 260 249 253 241 255 258 256 238 136 62 292 293 135 160 144 140 183 190 122 156 204 194 137 138 74 121 207 234 233 229 274 353 33 259 256 257 262 253 280 281 254 274 272 254 271 275 221 272 275 273 276 273 269 264 257 253 257 264 252 252 268 274 267 257 260 275 285
291 298 310 312 315 317 321 330 333 339 349 4 33 55 7 339 351 346 336 274 289 274 239 244 232 232 251 264 222 169 188 237 253 253 182 153 133 201 154 152 175 172 170 192 196 177 193 237 237 234 222 230 270 258 257 274 253 235 223 259 274 258 269 272 251 295 318 236 270 286 283 281 265 257 258 258 258 262 269 259 246 250 256 261 269 280 277 274
284 291 303 309 314 314 318 326 325 338 354 7 34 26 3 326 261 303 319 260 278 280 247 227 215 209 229 251 189 172 199 214 208 255 184 156 146 157 163 169 155 177 213 205 201 207 236 244 213 172 174 194 233 252 245 266 258 223 203 222 256 256 248 252 271 331 336 284 284 300 297 289 241 238 256 274 286 265 255 258 253 246 249 266 291 284 265 263
287 290 296 301 308 309 313 321 322 344 351 359 21 4 1 336 256 153 11 315 276 289 282 229 204 209 198 146 157 171 182 210 209 257 185 160 152 138 193 178 146 216 220 191 203 238 256 248 150 132 157 160 193 239 225 225 252 265 213 216 237 253 255 259 286 338 353 311 327 5 323 299 177 174 258 295 309 268 248 248 252 259 268 276 278 272 273 280
278 281 290 294 298 303 312 322 328 342 346 352 359 353 352 339 273 218 55 359 275 274 295 243 182 179 170 106 127 155 129 267 271 349 143 173 167 134 163 211 126 225 198 164 182 233 258 272 121 167 173 139 169 245 231 195 234 283 238 213 228 247 259 264 283 320 309 266 301 60 12 285 283 176 233 246 247 260 257 251 258 277 285 269 262 269 281 289
263 266 276 283 286 293 301 309 312 329 341 330 345 349 343 337 302 268 38 351 291 212 125 301 353 126 175 28 8 129 157 277 359 47 69 173 271 98 158 215 201 215 172 143 297 242 215 151 76 116 133 147 190 250 221 163 179 265 245 193 212 236 247 239 232 230 242 285 299 152 155 271 284 233 207 220 226 256 266 266 273 272 267 272 273 272 276 284
259 261 261 266 277 279 271 265 291 313 284 302 343 350 341 336 307 315 62 308 291 100 104 287 64 89 295 3 46 100 236 303 75 334 336 29 299 42 248 229 188 196 181 146 241 246 175 179 172 145 127 168 204 222 176 152 180 250 204 143 174 210 217 167 158 205 277 342 305 233 155 248 283 259 161 198 225 249 268 276 283 279 274 277 278 283 288 285
263 263 259 263 274 271 261 253 250 257 261 294 345 341 342 338 314 60 86 252 281 69 54 20 109 8 356 22 19 51 353 353 105 280 334 48 294 60 193 225 160 192 225 160 225 249 205 208 184 151 151 204 215 204 162 161 195 232 131 97 71 74 75 105 148 149 38 325 266 210 157 230 284 274 122 84 234 246 274 285 282 284 283 274 279 296 300 293
266 265 262 265 264 245 237 243 242 245 253 264 316 329 349 2 21 88 227 240 340 1 321 79 140 315 60 77 333 346 351 321 18 346 12 71 342 32 150 201 108 131 283 331 261 247 233 206 154 158 187 194 177 154 167 174 190 74 83 49 17 25 38 53 74 92 67 290 251 189 184 199 287 295 142 176 213 205 265 298 293 296 299 294 301 305 302 305
266 265 261 259 252 227 204 237 247 239 234 240 300 348 6 21 78 187 235 241 20 306 59 62 332 14 71 99 291 316 34 302 337 64 62 92 17 30 54 213 89 69 341 323 283 270 240 175 206 240 215 152 130 139 282 132 91 63 68 46 3 332 9 29 356 55 131 263 253 194 185 177 241 269 213 261 275 241 232 265 281 289 298 303 311 308 306 314
267 265 257 252 248 230 215 234 248 219 212 211 325 20 64 14 227 212 240 352 342 260 139 172 308 50 59 50 287 257 161 278 299 123 148 143 152 181 198 201 175 308 306 254 278 325 276 216 236 283 232 160 145 179 328 23 86 105 121 93 17 316 342 359 315 82 191 252 248 195 180 188 245 261 283 288 286 278 257 236 251 266 279 292 301 304 312 321
274 265 253 247 240 228 225 234 235 205 191 172 109 35 89 215 244 205 186 279 242 219 101 110 83 100 115 36 276 244 171 233 207 162 155 122 158 250 259 229 182 228 265 219 317 327 295 280 243 178 261 186 150 162 240 231 155 148 155 150 141 186 263 268 260 269 265 270 267 189 178 234 270 269 261 258 267 281 284 243 235 249 265 280 291 302 314 310
287 273 255 249 241 232 229 231 234 221 188 157 117 65 137 229 246 119 154 216 238 341 72 99 67 51 140 211 242 202 190 250 171 141 149 98 125 263 268 246 199 173 226 230 300 205 251 290 224 178 234 180 170 190 190 149 155 175 163 148 157 176 212 240 235 258 273 274 288 194 174 216 259 268 242 238 257 285 285 262 257 260 267 282 296 308 316 302
289 284 269 253 242 236 227 227 233 217 184 154 117 175 205 234 247 100 198 223 273 323 13 87 89 36 285 259 270 231 211 246 120 119 177 171 183 213 219 221 195 161 143 215 265 174 209 267 253 244 126 157 179 212 142 113 115 222 135 117 204 193 181 244 245 242 266 285 274 246 217 220 244 287 282 271 274 276 274 274 270 256 267 324 325 314 322 315
285 291 274 242 237 234 225 226 224 204 180 152 205 218 226 234 205 180 205 188 171 175 336 343 113 168 268 271 299 287 207 216 163 129 209 199 201 216 223 227 194 179 176 186 228 211 224 267 269 1 25 181 194 204 157 158 174 165 136 180 227 170 140 244 268 254 270 278 258 241 259 269 285 288 286 293 295 290 301 296 246 229 278 0 339 318 328 324
284 289 256 231 236 234 230 229 212 194 183 167 211 221 234 229 190 187 193 143 133 125 107 276 215 189 243 256 281 268 193 216 189 169 218 226 226 206 211 250 205 191 200 204 231 232 222 263 245 176 224 237 201 160 275 248 156 139 187 215 218 99 111 218 267 281 249 256 247 227 252 272 286 279 289 313 305 298 317 320 300 286 303 330 314 299 307 310
298 294 265 247 240 234 234 225 200 184 183 216 225 231 226 210 212 183 156 140 121 102 126 224 242 221 217 232 260 231 190 205 172 164 202 233 234 172 171 240 218 202 217 219 250 272 227 272 266 197 221 251 68 52 288 283 175 149 211 236 88 210 253 248 217 218 242 256 257 225 240 254 249 260 284 292 285 284 290 306 312 300 292 318 320 304 318 334
301 292 280 249 230 226 223 206 186 170 193 220 230 237 213 215 247 195 183 165 109 106 187 231 241 264 255 214 217 247 217 194 170 190 204 230 250 198 158 229 239 224 224 196 207 274 46 258 257 236 225 52 42 247 235 259 323 69 119 333 42 191 229 239 202 183 246 263 271 253 244 241 224 243 266 269 275 285 290 274 286 292 311 349 351 343 354 3
182 247 268 243 217 210 198 183 171 168 223 221 235 240 212 285 280 276 261 237 201 213 223 223 219 230 251 229 216 252 246 200 200 220 221 246 270 261 219 208 192 226 183 179 224 232 86 239 242 233 225 64 229 220 211 220 222 147 173 225 221 205 247 266 233 214 249 262 268 264 254 238 220 242 253 259 271 290 305 268 278 317 353 6 15 21 18 17
148 211 255 288 209 182 169 161 175 206 217 241 253 251 271 314 284 294 301 223 225 261 206 191 208 213 228 242 235 227 210 221 217 214 234 251 253 256 253 202 170 144 83 71 239 218 185 232 241 230 228 245 243 229 210 206 198 187 192 200 215 222 249 271 256 226 227 245 249 259 263 249 238 259 258 266 284 323 4 8 4 19 20 16 23 31 27 24
196 195 261 320 179 166 155 167 221 201 216 239 246 243 263 319 282 272 284 221 212 255 292 213 216 209 211 231 223 196 206 229 212 212 240 235 222 233 249 204 162 146 115 194 227 228 187 164 232 239 235 247 258 261 229 187 158 169 198 196 209 200 194 238 253 245 237 249 254 260 265 250 235 257 270 294 320 4 29 31 35 36 26 18 16 16 18 19
202 216 8 81 172 168 160 229 213 207 233 246 290 267 233 262 266 261 268 248 223 243 273 250 225 231 234 227 218 212 224 228 216 226 242 238 230 237 243 258 291 357 307 274 264 281 30 111 243 255 257 265 279 292 287 149 120 127 241 205 192 193 222 235 250 273 266 262 273 267 260 253 259 268 287 343 5 30 39 29 28 31 22 18 15 12 13 11
285 278 3 163 186 186 198 221 215 231 233 247 273 258 245 236 242 253 256 235 212 218 226 226 240 248 234 222 223 222 225 233 236 238 234 226 245 265 312 341 338 340 278 272 276 292 298 227 249 269 273 279 286 292 298 315 131 209 243 231 222 231 258 270 280 304 275 228 239 257 259 261 292 311 360 14 17 36 43 28 23 26 19 14 13 10 9 7
346 271 292 218 209 213 231 227 228 238 234 245 251 249 257 253 231 237 245 240 217 202 221 251 265 284 259 251 260 244 233 237 254 269 252 229 259 325 23 22 21 35 32 353 315 305 277 232 239 257 253 255 262 259 261 281 264 263 255 251 258 234 231 262 286 269 258 230 232 254 271 272 281 343 19 15 7 18 35 32 25 22 16 12 12 9 7 7
65 255 291 284 243 243 253 261 247 228 233 243 241 241 246 249 254 220 211 239 239 214 232 263 260 1 284 244 249 255 247 235 237 261 274 263 260 296 0 27 48 36 46 70 51 22 251 238 236 245 250 257 269 271 281 292 283 280 278 271 276 267 242 253 267 253 266 269 255 259 273 279 285 339 18 16 10 6 12 22 23 19 13 9 7 5 5 5
125 231 186 172 286 262 248 254 242 230 241 246 237 243 242 247 265 247 207 236 248 203 227 251 224 218 221 224 240 251 252 244 238 243 252 256 252 288 326 21 54 18 28 85 44 69 197 251 238 243 253 257 268 275 280 282 273 270 279 280 281 283 273 261 256 255 266 276 269 265 273 280 288 7 22 13 13 3 5 18 18 13 9 6 4 3 3 0
200 184 205 236 262 233 231 249 254 246 248 253 260 275 267 258 256 248 236 288 305 179 225 262 233 223 224 229 243 254 257 256 253 248 251 263 276 317 337 5 60 25 36 50 345 108 181 263 255 259 270 267 269 276 275 271 266 258 265 271 274 277 272 263 262 266 268 266 272 280 282 285 308 42 25 15 12 351 358 20 9 4 7 3 4 5 3 359
341 266 298 343 324 244 279 307 325 290 245 246 248 249 258 260 255 254 254 309 293 231 219 241 239 227 225 227 229 239 245 247 256 254 238 236 233 236 328 302 245 44 44 24 326 230 199 258 259 267 279 274 266 273 276 275 274 265 260 258 259 262 263 264 268 271 267 262 267 276 279 284 24 59 344 18 25 336 340 359 349 1 5 1 3 2 358 354
25 308 311 4 330 276 332 316 305 324 256 241 239 236 241 248 256 264 254 227 253 249 218 237 244 235 221 215 214 223 229 230 258 265 203 150 227 191 195 252 242 13 13 11 307 287 259 285 327 326 294 281 277 276 278 279 279 280 281 278 271 268 266 269 273 273 269 268 271 274 275 276 98 90 307 315 19 339 341 338 332 351 357 356 359 355 349 345
24 336 326 4 298 241 139 14 280 300 262 237 234 244 249 251 262 284 296 203 236 258 200 285 279 266 229 228 226 230 224 140 107 293 123 173 263 281 242 225 105 358 334 226 255 304 295 305 335 326 287 279 285 284 286 294 293 282 276 271 267 267 267 266 268 273 265 266 279 283 277 260 103 31 294 273 303 353 339 324 313 315 344 350 351 347 341 336
51 332 311 114 284 248 146 95 176 205 233 240 257 277 274 294 355 343 296 78 73 63 59 36 4 5 359 296 282 289 73 87 93 47 3 263 273 280 266 260 266 270 255 228 242 253 249 268 298 288 276 278 280 284 304 326 298 276 261 253 255 257 262 262 258 56 297 251 259 276 262 120 222 295 336 321 327 340 324 310 296 283 316 338 339 338 330 323
Height
833 833 832 831 831 830 829 828 828 827 826 826 825 825 824 823 823 822 821 821 820 819 819 818 817 817 816 815 814 812 811 809 808 808 807 803 802 803 803 803 804 804 805 806 806 806 807 808 808 809 809 811 815 815 816 816 817 820 827 834 834 835 832 823 819 818 813 807 804 803 805 806 802 799 798 798 798 796 795 794 793 790 786 784 782 782 783 784
833 832 831 831 830 829 828 828 827 826 826 825 825 824 823 823 822 821 821 820 820 819 818 817 817 816 815 814 813 811 810 808 807 806 804 801 802 802 802 803 804 804 804 805 806 806 807 808 809 809 811 814 817 817 817 817 817 821 831 834 830 826 820 814 810 810 810 806 803 803 805 806 802 799 799 797 796 796 794 791 791 789 783 781 781 782 782 783
833 832 831 831 830 829 828 827 827 826 825 825 824 823 823 822 821 821 820 819 818 818 817 816 816 815 814 814 812 812 809 807 806 804 802 801 801 801 801 802 803 804 804 805 806 806 807 807 808 810 813 816 818 819 818 818 819 821 829 831 822 816 814 813 810 807 806 804 804 804 804 805 801 800 799 798 796 796 792 787 789 787 781 778 778 780 781 782
833 832 831 830 829 829 828 827 826 826 825 824 823 823 822 821 821 820 819 818 817 817 816 816 815 814 814 812 813 812 808 808 807 803 802 801 801 801 801 801 803 803 804 805 806 807 807 808 809 811 814 817 821 822 820 818 819 822 825 821 814 815 813 807 806 805 806 808 807 804 805 803 798 800 799 797 800 795 785 781 782 781 777 775 775 778 780 780
832 831 831 830 829 828 827 827 826 825 825 824 823 822 821 821 820 819 818 818 817 816 815 815 814 813 813 812 813 810 811 816 808 801 802 801 801 801 801 801 802 803 804 805 806 807 808 809 810 813 816 818 821 821 819 817 819 821 818 812 811 816 811 801 803 805 806 808 807 806 804 799 797 798 795 797 801 790 775 774 776 774 773 772 772 776 778 779
832 831 830 829 828 828 827 826 825 825 824 823 822 821 821 820 819 818 817 817 816 816 814 814 813 813 812 811 812 810 815 819 806 799 802 800 801 801 800 801 801 802 804 805 806 807 808 810 812 815 818 819 821 819 817 818 819 818 813 811 809 811 808 801 802 803 804 806 804 803 800 799 799 795 793 795 793 779 767 769 772 770 771 770 771 773 774 775
831 830 830 829 828 827 826 825 824 823 823 822 821 820 820 819 818 817 816 816 815 815 814 813 812 812 811 811 812 811 815 812 800 800 801 799 800 800 800 801 801 802 803 804 806 807 809 812 813 816 819 819 820 818 816 817 818 818 814 810 806 807 806 801 802 803 804 804 801 802 801 798 798 796 794 790 783 773 764 765 768 768 769 770 769 769 769 769
830 830 829 828 827 826 825 824 823 822 821 821 820 819 819 818 817 816 815 814 813 814 813 812 812 811 811 811 811 813 815 806 799 800 799 799 800 799 800 800 801 802 803 804 805 807 809 811 812 816 817 817 818 817 816 816 817 818 813 808 805 805 802 800 803 804 803 803 801 803 799 791 793 797 792 783 776 769 764 764 766 767 767 768 766 765 766 766
830 829 828 828 827 826 824 823 822 821 820 820 819 818 818 817 816 815 814 813 812 812 811 811 811 809 810 810 811 814 809 800 798 798 798 798 798 798 799 799 800 801 802 803 804 806 808 810 811 812 813 814 816 815 815 816 815 812 809 806 805 803 800 800 801 801 801 800 800 801 795 787 789 794 785 773 767 763 763 764 763 765 765 763 763 761 761 762
829 828 828 827 826 825 824 822 821 820 820 819 818 818 817 816 815 813 812 812 811 811 810 810 809 809 809 808 812 813 801 796 798 797 797 797 796 797 797 798 799 800 801 803 804 805 805 807 808 809 811 813 814 814 815 815 812 808 809 807 805 803 801 802 800 798 800 797 796 798 792 785 789 795 781 762 760 762 764 763 761 764 762 759 760 758 758 758
828 827 827 826 825 824 823 822 821 820 819 818 818 817 815 815 813 812 811 810 810 809 809 808 807 808 808 807 812 807 796 795 797 795 796 795 794 795 795 797 797 798 801 802 803 803 804 805 806 808 810 811 812 814 813 810 809 809 810 807 803 803 800 800 799 796 798 795 793 794 792 788 791 794 776 756 758 762 763 760 759 761 759 757 756 755 756 755
827 826 826 825 824 823 822 821 820 819 818 817 817 815 814 813 811 810 809 809 808 808 808 807 807 806 807 808 806 799 793 794 794 794 795 793 793 794 794 796 796 798 799 800 802 802 804 804 805 807 809 810 811 813 810 808 809 808 810 808 802 802 798 792 792 793 795 793 790 794 797 793 788 780 763 754 759 762 763 760 757 757 755 753 752 751 752 749
827 826 825 824 824 823 822 821 820 819 818 817 815 814 813 811 810 809 807 807 806 806 806 806 806 805 808 806 796 791 791 792 792 792 793 792 792 793 793 795 796 797 798 799 801 801 803 803 804 806 807 809 810 810 807 808 810 807 810 811 807 808 800 787 789 794 794 791 788 792 798 790 777 767 754 753 759 760 761 758 755 754 752 750 748 748 747 745
826 825 825 824 823 823 822 820 819 818 817 816 814 813 811 809 808 806 805 805 804 805 805 805 805 805 807 801 790 790 790 790 790 790 790 791 791 792 793 795 795 797 797 799 800 800 801 802 804 806 807 809 808 807 809 811 809 808 811 812 815 816 799 784 789 795 792 790 788 789 796 786 771 762 752 752 757 758 758 756 753 751 749 748 745 744 742 739
826 825 825 824 823 822 821 820 819 818 816 815 813 811 809 807 806 804 804 803 803 804 803 804 804 805 807 798 788 789 789 788 788 787 788 789 790 792 792 794 795 796 797 798 799 800 801 802 804 806 807 807 807 809 814 813 809 812 814 812 816 817 802 788 787 790 788 788 790 790 791 784 771 761 753 754 757 758 758 755 752 749 747 746 744 742 739 734
825 825 824 823 823 822 821 820 819 817 816 814 812 811 808 806 804 803 802 801 802 803 803 804 804 805 807 797 788 788 786 785 786 785 786 787 788 790 792 794 795 796 797 798 799 800 801 802 805 807 807 807 809 813 818 819 815 816 818 814 812 812 807 797 784 782 785 786 788 787 783 777 767 758 754 756 756 757 758 755 752 749 744 743 742 740 737 731
825 825 824 823 822 822 821 820 818 817 815 813 811 809 807 805 804 802 802 801 802 802 803 803 803 805 802 792 789 787 784 783 784 784 784 785 788 789 791 793 795 796 797 798 799 801 802 804 808 809 809 811 813 815 822 827 821 816 816 815 813 810 809 803 786 780 786 786 784 785 784 775 763 758 757 755 755 757 757 753 751 748 743 740 738 737 734 728
825 824 823 823 822 821 820 819 818 817 815 813 810 808 807 805 804 803 803 802 803 803 805 804 804 809 800 788 787 785 782 783 783 784 784 785 788 789 790 792 795 796 797 800 800 802 804 807 811 811 811 813 813 817 822 820 811 808 809 809 811 811 810 807 795 784 783 783 783 787 784 774 766 763 760 756 756 758 752 748 747 744 741 738 735 732 727 723
824 824 823 822 822 821 820 819 818 816 814 812 810 808 806 805 805 804 804 803 803 801 801 801 800 802 795 785 783 782 782 783 783 784 785 786 787 789 790 791 794 795 799 803 802 803 806 809 814 815 813 810 808 811 810 801 798 803 806 806 807 807 804 802 795 787 784 784 785 785 775 767 765 762 759 755 753 755 749 744 741 738 737 736 732 726 721 719
823 823 822 822 821 820 819 819 818 816 814 812 810 807 806 808 806 804 805 804 800 795 794 794 791 789 786 782 782 782 783 783 783 784 785 786 786 788 791 792 795 797 800 801 803 805 806 811 815 811 805 801 800 803 800 797 802 806 809 809 808 807 801 794 790 784 786 788 783 777 767 762 762 758 756 753 749 751 748 743 737 733 733 731 728 721 714 710
823 822 822 821 820 820 819 818 817 816 815 813 811 809 811 814 812 810 809 802 794 792 790 789 788 786 781 781 782 782 783 783 783 784 785 785 786 788 791 794 797 800 801 802 804 806 808 813 812 802 796 797 799 802 803 805 807 808 810 811 810 811 801 790 787 781 784 789 780 774 768 761 761 757 752 751 748 743 739 740 737 729 727 725 722 715 706 703
823 821 821 821 819 819 818 818 817 816 815 814 812 813 817 818 817 817 816 807 795 790 789 787 787 785 779 780 782 781 784 785 783 784 785 786 787 788 790 794 798 799 802 804 805 808 812 813 805 795 796 801 803 804 805 806 808 809 813 815 812 809 798 786 784 782 785 788 779 776 769 758 758 754 746 742 739 734 731 735 735 727 722 717 711 709 707 704
821 820 820 820 819 819 817 817 817 816 815 814 814 816 817 817 817 818 818 814 800 788 786 784 783 783 779 779 780 781 785 785 783 783 783 785 788 789 790 793 798 799 800 800 801 805 809 803 794 794 800 804 804 804 805 805 807 807 811 814 808 803 799 790 782 781 787 787 780 779 768 752 750 746 738 735 733 733 731 729 729 724 716 707 706 710 710 704
820 820 820 819 819 818 817 817 816 815 815 814 815 816 816 816 817 817 816 813 802 788 781 779 779 779 777 777 776 779 783 783 782 780 779 782 786 789 789 791 797 799 798 796 797 799 797 791 790 795 800 803 805 805 807 806 803 803 807 810 801 794 796 793 784 784 788 785 780 779 763 740 737 738 733 733 734 732 729 725 720 715 710 708 710 709 704 702
819 819 818 818 818 817 817 817 815 816 815 814 816 815 815 816 815 816 816 811 801 789 779 777 778 777 774 775 776 777 780 780 779 779 780 780 783 787 789 790 793 794 795 797 801 801 794 790 792 795 798 804 807 804 804 803 802 801 800 797 791 788 791 791 790 794 794 786 782 784 769 741 733 738 731 727 729 725 720 718 711 708 711 713 712 705 698 699
818 818 818 818 817 817 817 816 815 816 814 815 816 815 815 815 814 816 815 813 800 783 777 778 777 775 774 776 777 778 779 780 780 780 781 781 781 783 787 790 791 791 793 797 800 799 794 791 792 793 797 803 807 804 798 800 805 804 793 786 787 790 793 794 796 799 794 787 786 789 784 762 738 733 731 725 724 720 712 710 709 710 712 710 708 704 700 698
816 816 817 817 816 817 817 816 816 815 814 816 815 815 816 813 816 815 813 816 798 775 774 779 777 776 775 778 779 778 779 780 781 782 782 782 782 782 785 789 790 791 793 795 796 792 788 790 794 795 797 801 804 800 794 798 805 800 790 785 785 788 793 797 799 800 796 791 791 787 788 782 751 730 728 724 723 721 713 711 711 710 710 708 707 703 701 699
815 815 815 815 815 816 816 816 816 815 815 815 814 816 815 813 817 813 815 821 793 766 771 777 776 776 775 779 780 779 782 781 780 783 783 784 784 784 786 786 786 787 789 791 792 788 785 786 789 791 796 799 796 789 789 796 797 791 791 792 790 791 794 798 797 799 802 798 793 786 787 788 759 727 727 731 727 723 715 713 712 709 708 707 705 701 700 700
813 814 814 815 815 814 815 815 814 814 814 814 815 815 813 814 815 813 824 822 783 763 773 775 774 778 778 780 781 781 783 782 781 783 783 784 784 785 788 788 787 786 787 788 786 784 784 785 786 786 789 788 784 784 787 789 788 789 795 794 795 797 797 800 798 796 802 797 789 788 786 784 756 720 724 736 731 724 717 712 712 712 710 705 703 702 698 695
812 812 813 814 814 814 813 813 813 812 813 813 814 814 814 814 815 821 830 812 778 771 778 775 777 781 780 781 782 783 783 782 784 785 784 786 784 785 788 789 789 788 789 791 787 783 784 788 790 784 780 778 778 787 791 788 788 792 794 790 791 796 797 803 802 796 802 795 784 782 779 783 766 727 720 730 727 724 720 712 707 707 707 702 701 701 697 694
809 811 812 813 813 813 813 813 811 811 813 813 813 814 814 815 820 827 819 793 778 781 779 778 784 783 782 785 783 783 784 783 786 785 784 787 787 787 789 788 789 791 792 790 786 786 786 788 787 779 776 778 778 786 793 795 794 793 793 791 791 794 795 801 802 800 803 791 777 775 775 784 772 733 721 727 723 721 721 716 711 707 704 701 701 700 698 696
807 808 810 811 812 812 813 813 811 812 812 813 814 814 816 821 821 815 800 783 781 782 776 781 787 783 786 788 783 785 787 784 786 785 784 788 789 787 787 785 784 787 788 785 782 781 780 781 782 777 775 777 777 782 791 794 794 794 795 798 801 801 799 799 799 801 800 785 776 780 781 781 762 729 722 725 717 712 712 714 712 709 706 702 701 700 698 699
806 806 808 809 810 811 812 812 812 813 812 813 816 814 821 826 810 794 790 785 781 779 777 781 786 787 789 786 782 786 788 784 784 786 785 790 793 788 786 786 785 783 783 786 784 777 773 776 779 777 772 772 774 777 780 781 788 794 792 793 800 802 802 799 795 799 795 777 776 785 782 775 754 728 721 717 709 707 708 710 710 709 708 705 704 703 701 702
804 805 806 807 808 809 810 812 812 813 813 814 816 819 824 819 795 784 787 783 777 777 779 782 785 787 788 785 784 785 784 781 783 786 787 790 794 789 784 786 789 785 783 788 787 781 779 774 770 767 764 765 768 766 764 767 781 790 784 785 788 784 786 788 782 783 779 766 773 785 779 765 744 722 715 712 709 711 710 710 712 710 708 710 710 708 705 704
803 804 804 805 806 807 808 810 811 812 814 815 818 821 817 802 788 786 787 781 778 776 779 783 784 784 785 784 786 784 780 780 784 787 788 788 789 784 778 778 784 786 785 787 783 782 785 772 761 764 765 765 765 761 761 766 776 786 785 784 782 771 771 777 772 766 768 770 773 776 768 749 730 715 709 709 708 707 706 707 709 706 705 709 711 707 705 704
803 802 803 803 803 805 806 808 809 811 812 815 818 815 801 787 784 785 782 779 780 777 779 784 782 783 785 782 784 784 780 781 785 785 786 787 786 782 778 774 776 778 776 778 776 774 779 770 761 767 768 764 764 762 762 762 767 780 785 777 771 767 766 773 774 766 772 780 769 758 754 742 731 719 706 702 702 702 704 704 703 703 704 709 711 708 707 705
802 801 802 801 801 803 804 805 807 809 811 813 812 801 788 782 780 780 779 780 782 779 780 785 781 779 782 780 781 784 781 781 783 782 783 784 779 776 776 771 771 772 765 765 768 766 770 768 758 759 762 764 769 769 763 761 763 771 776 767 764 769 767 771 781 778 779 782 765 752 749 743 741 728 706 702 703 700 703 703 703 704 705 710 713 712 711 708
800 801 800 798 799 801 802 804 806 808 811 809 803 791 783 782 780 779 779 780 781 780 782 787 782 776 779 780 779 780 781 781 782 782 782 779 771 767 768 766 766 769 764 761 766 766 770 771 759 753 757 763 769 769 764 763 764 765 766 763 765 773 773 772 780 781 779 776 761 749 745 742 741 729 713 710 704 698 702 703 703 703 705 712 716 715 714 714
800 801 799 795 795 798 800 802 804 808 810 805 799 790 782 780 780 780 780 778 780 782 784 785 782 780 780 779 778 779 781 781 781 783 783 779 771 765 764 764 763 766 767 766 768 770 773 777 767 753 755 764 766 764 762 761 764 768 768 767 767 772 774 771 771 770 769 767 758 750 745 737 729 721 716 713 702 697 703 704 702 701 706 716 720 720 723 726
800 802 799 793 794 796 798 801 803 806 804 797 792 787 781 781 781 780 781 780 779 781 783 783 782 783 780 778 779 780 781 782 780 782 783 777 771 765 762 762 761 765 770 769 770 773 774 778 773 758 758 766 763 757 755 754 759 765 767 769 770 768 768 768 763 758 758 760 757 753 747 734 722 713 710 707 701 701 708 710 710 712 720 728 733 736 739 739
799 802 798 792 794 796 798 802 802 801 799 793 789 786 783 783 782 781 782 782 780 779 780 781 780 781 781 780 781 780 782 783 779 781 780 774 773 769 763 760 759 763 770 772 772 773 772 773 771 764 762 762 755 748 747 747 750 755 758 761 762 761 764 767 762 751 750 753 753 751 747 734 719 711 707 704 702 706 717 723 725 731 740 743 745 747 747 745
799 802 797 793 794 795 797 801 799 797 796 792 787 785 785 784 783 782 781 781 782 780 779 780 780 780 781 780 780 781 782 782 779 780 778 772 771 768 762 759 759 761 766 770 769 767 768 772 771 766 761 755 749 745 746 748 748 752 755 754 755 757 759 762 759 749 745 746 746 750 749 734 717 710 708 706 708 721 738 744 743 748 753 752 751 749 747 745
798 798 795 794 795 796 797 798 795 795 794 789 786 785 786 785 784 783 782 782 783 781 780 780 780 780 779 778 779 780 780 781 777 775 774 772 768 763 759 759 761 763 765 767 766 765 769 773 772 766 758 752 749 746 748 752 753 756 756 753 756 757 753 754 754 752 754 753 750 753 748 731 716 710 712 718 727 742 756 758 756 758 757 756 754 751 748 747
798 797 795 795 796 796 796 793 791 793 792 790 789 788 786 786 784 783 783 783 782 781 781 779 779 779 777 776 777 777 778 780 775 770 771 772 767 763 763 764 765 767 769 771 770 770 773 772 770 770 765 759 757 753 751 753 755 758 755 752 755 755 755 758 757 761 766 757 752 755 747 732 721 715 723 739 748 755 763 765 763 763 761 760 758 756 754 751
800 798 796 796 796 795 793 788 789 792 792 791 791 789 787 786 782 780 782 782 781 780 780 780 780 780 779 778 779 778 778 779 778 773 772 772 768 765 769 771 769 770 774 776 774 774 776 772 767 770 770 764 760 757 755 756 757 759 755 752 753 754 757 760 761 765 763 750 747 750 742 732 723 723 742 759 759 759 767 769 768 767 767 765 763 762 759 757
800 798 797 798 797 794 791 788 791 792 790 790 790 787 786 785 780 778 780 780 779 779 780 782 783 783 783 782 782 781 779 780 783 780 776 774 770 768 772 774 773 776 777 778 778 778 780 775 768 767 766 761 759 756 756 760 761 759 756 753 754 755 756 760 763 763 755 748 746 742 737 733 728 737 762 773 769 768 770 771 772 772 771 769 767 765 763 761
801 799 798 798 798 795 792 790 792 792 790 790 788 784 782 782 781 779 779 779 779 779 780 781 781 782 783 781 781 781 779 778 781 781 779 777 773 771 774 774 776 779 778 779 781 781 781 777 768 766 765 762 760 759 758 761 762 759 758 756 755 756 757 762 763 755 751 751 744 735 733 733 734 754 775 779 778 777 774 774 776 775 774 772 769 767 765 762
801 799 797 797 798 796 793 793 793 792 790 791 789 785 783 783 782 781 780 780 780 779 780 781 779 778 778 778 780 781 779 778 778 776 776 778 778 777 776 775 779 783 780 780 782 780 782 779 767 765 766 762 762 762 761 763 763 761 761 759 758 758 757 758 755 748 750 752 743 735 733 732 748 772 781 779 781 780 776 777 777 775 775 773 771 769 767 765
801 801 799 799 800 798 797 798 797 795 792 791 790 788 786 786 784 781 780 781 782 780 779 780 777 775 776 778 780 782 781 780 778 775 776 780 782 782 780 777 780 783 783 783 781 779 782 778 768 768 771 767 765 764 762 764 764 761 760 759 758 756 753 752 749 746 749 747 739 738 736 741 767 784 779 777 781 778 776 776 775 775 774 772 771 769 768 767
802 802 802 802 803 803 803 802 799 796 794 792 788 785 783 783 782 779 778 780 781 778 777 778 774 773 776 778 778 779 776 776 776 776 781 784 782 782 784 781 780 784 786 785 783 780 782 777 768 771 776 772 765 763 763 763 763 762 760 757 755 753 750 749 747 744 744 740 739 741 740 751 775 784 778 778 778 776 776 775 773 774 773 771 770 768 767 767
804 803 803 805 804 802 804 805 802 799 796 792 787 783 781 781 783 784 781 781 783 782 781 783 781 779 782 781 779 778 777 779 782 783 786 788 784 784 785 783 784 788 788 786 784 781 783 782 776 777 782 773 763 764 765 764 766 767 764 759 754 752 749 746 745 747 746 744 747 746 746 761 777 779 778 778 776 777 777 774 772 773 771 770 769 766 766 765
804 804 803 806 806 800 801 805 804 801 796 791 789 788 786 789 792 791 786 785 789 790 790 791 789 787 788 787 785 786 786 786 787 788 789 790 789 788 788 786 786 788 788 786 786 783 784 786 785 785 785 775 766 767 769 774 775 766 757 752 747 746 744 739 745 758 759 756 758 755 757 771 779 777 778 778 774 775 775 772 771 771 770 770 768 766 766 763